Miscellaneous Local Product
Issued by NWS North Platte, NE

Home | Current Version | Previous Version | Text Only | Print | Product List | Glossary On
Versions: 1 2 3 4 5 6 7 8 9 10 11 12 13 14 15 16 17 18 19 20 21 22 23 24 25 26 27 28 29 30 31 32 33 34 35 36 37 38 39 40 41 42 43 44 45 46 47 48 49 50
000
AXUS43 KLBF 070810
MISLBF


WESTERN AND NORTH CENTRAL NEBRASKA HOURLY WEATHER ROUNDUP
NATIONAL WEATHER SERVICE NORTH PLATTE NE
200 AM CST SUN FEB 07 2016

NOTE: "FAIR" INDICATES FEW OR NO CLOUDS BELOW 12,000 FEET WITH NO
SIGNIFICANT WEATHER AND/OR OBSTRUCTIONS TO VISIBILITY.

NOTE: STATIONS NOT REPORTING VARIABLES SUCH AS SKY/WEATHER OR
PRESSURE ARE PROVIDED BY THE NEBRASKA DEPARTMENT OF
ROADS...RAWS...AND APRS NETWORKS...AND ARE NOT UNDER
NATIONAL WEATHER SERVICE QUALITY CONTROL.

...OBSERVATIONS IN AND NEAR THE EASTERN PANHANDLE OF NEBRASKA...

CITY           SKY/WX    TMP DP  RH WIND       PRES   REMARKS
PINE RIDGE     CLOUDY    33  23  66 NW6       30.08R WCI  28
CHADRON        CLOUDY    35  21  56 W14       30.11S WCI  26
ALLIANCE       CLEAR     22  16  78 W15       30.10R WCI   9
SIDNEY         CLEAR     32  21  64 NW16      30.13F WCI  21
BIG SPRINGS      N/A     35  26  69 NW10        N/A  WCI  27
$$

...OBSERVATIONS IN NORTH CENTRAL NEBRASKA...

CITY           SKY/WX    TMP DP  RH WIND       PRES   REMARKS
VALENTINE      PTCLDY    37  23  56 W14G22    30.02S WCI  28
THEDFORD       CLOUDY    40  25  54 NW13G20   30.05S WCI  33
AINSWORTH      CLEAR     37  24  59 W15       30.01S WCI  28
O`NEILL        PTCLDY    40  25  56 W17       29.97R WCI  31
ORD            CLEAR     34  26  72 NW10      29.99S WCI  26
BROKEN BOW     CLEAR     36  26  67 NW20      30.01S WCI  25
BUTTE            N/A     38  28  67 W17G25      N/A  WCI  28
CHAMBERS         N/A     39  24  55 N9          N/A  WCI  33
EWING            N/A     40  29  64 NW14G25     N/A  WCI  32
$$

...OBSERVATIONS IN SOUTHWEST NEBRASKA AND FAR NORTHEAST COLORADO...

CITY           SKY/WX    TMP DP  RH WIND       PRES   REMARKS
WRAY           FAIR      35  24  63 N15       30.12S WCI  26
HOLYOKE        FAIR      34  25  69 N12       30.13R WCI  25
IMPERIAL         N/A     33  24  69 NW9       30.11S WCI  25
OGALLALA       CLOUDY    32  22  67 NW14      30.11S WCI  22
NORTH PLATTE   CLOUDY    32  24  72 NW13      30.07R WCI  22
MCCOOK         CLOUDY    36  27  69 W12       30.10S WCI  28
LEXINGTON      CLOUDY    34  28  76 W12       30.06R WCI  26
PAXTON           N/A     33  28  81 W3          N/A
STAPLETON        N/A     33  26  77 CALM        N/A
GOTHENBURG       N/A     36  26  66 W6          N/A  WCI  31
CALLAWAY         N/A     34  26  72 NW8         N/A  WCI  27
$$

...OBSERVATIONS IN CENTRAL LINCOLN COUNTY AREA...

CITY           SKY/WX    TMP DP  RH WIND       PRES   REMARKS
N.P. AIRPORT   CLOUDY    32  24  72 NW13      30.07R WCI  22
N.P. DOWNTOWN    N/A     34  28  79 W3G12       N/A
N.P. SOUTHEAST   N/A     35  28  75 NW3         N/A
N.P. HILLCREST   N/A     32  27  80 W5          N/A  WCI  27
$$

...SOME OBSERVATIONS FROM AROUND THE REGION...

CITY           SKY/WX    TMP DP  RH WIND       PRES   REMARKS
DENVER         CLOUDY    39  11  31 SW6       30.11S WCI  35
LARAMIE        CLOUDY    26  16  65 W26       30.14F WCI  10
CHEYENNE       CLOUDY    36  15  42 W25G32    30.09S WCI  24
SCOTTSBLUFF    CLEAR     29  20  69 NW10      30.14S WCI  20
RAPID CITY     MOCLDY    36  18  48 NW25G37   30.03F WCI  24
BISMARCK       CLEAR     39  23  52 W25G37    29.79S WCI  28
PIERRE         MOCLDY    36  25  64 W16       29.93R WCI  26
WINNER         FAIR      38  25  59 W15       29.97S WCI  29
SIOUX FALLS    CLEAR     37  27  67 W18       29.81S WCI  27
OMAHA          CLOUDY    36  27  69 S3        29.92F
GRAND ISLAND   CLOUDY    35  27  72 NW14      30.01R WCI  26
KANSAS CITY    CLEAR     39  27  62 SW20G26   30.01F WCI  29
WICHITA        PTCLDY    35  25  66 S10       30.09F WCI  27
OKLAHOMA CITY  CLEAR     36  27  69 SW10      30.19F WCI  28
LIBERAL        CLOUDY    34  16  47 W12       30.08F WCI  25
HAYS           CLOUDY    34  19  55 NW8       30.07S WCI  27
GOODLAND       CLOUDY    30  23  75 NW9       30.12S WCI  22
$$




USA.gov is the U.S. government's official web portal to all federal, state and local government web resources and services.